CAPE
0 0 0 0 0 3 2 0 0 0 0 0 0 0 0 0 0 0 0 0 0 411 1109 1095 1958 1744 1469 1369 1269 1198 1226 1192 897 434 120 23 4 0 0 0 0 0 0 3 6 8 59 6 1
0 0 0 5 111 132 27 3 0 0 0 0 0 0 0 0 0 0 0 0 0 122 1143 1105 2021 1846 1801 1736 1701 1655 1652 1318 983 540 415 88 51 49 36 18 12 1 2 8 7 11 9 38 46
0 10 46 66 144 80 17 0 0 0 0 0 0 0 0 0 0 0 0 0 0 0 68 2089 2161 2043 2136 2065 2061 2071 1836 1265 811 281 88 84 139 142 122 111 125 76 45 12 16 19 12 172 195
113 43 29 54 1 31 33 1 0 0 0 0 0 0 0 0 0 0 0 0 0 0 10 2060 2641 2430 2305 1958 2195 2145 1551 1269 916 134 32 76 144 317 264 123 220 211 149 77 14 24 162 243 367
69 14 28 76 41 15 4 3 0 0 0 0 0 0 0 0 0 0 0 0 0 0 0 714 1854 1085 880 755 1031 1446 1030 695 395 154 181 204 231 194 148 224 248 248 261 195 26 37 179 355 409
4 23 23 23 33 6 7 1 0 0 0 0 0 0 0 0 0 0 0 0 0 0 0 96 904 605 573 1016 1054 542 274 59 0 0 0 26 101 104 109 117 104 160 308 350 132 50 161 417 529
15 41 39 42 33 19 3 0 0 0 0 0 0 0 0 0 0 0 0 0 0 0 0 0 8 397 549 470 22 0 0 0 0 0 0 1 5 3 41 132 206 313 567 409 297 252 268 357 405
2 8 9 17 48 39 38 1 0 0 0 0 0 0 0 0 0 0 0 0 0 0 0 0 0 0 0 13 0 0 0 0 0 0 0 3 5 3 0 295 371 433 544 512 399 221 107 335 449
0 0 0 27 36 19 1 0 3 0 0 0 0 0 0 0 0 0 0 0 0 0 0 0 0 0 0 0 6 5 5 6 1 8 4 10 17 21 25 363 533 444 621 543 381 261 264 320 454
0 0 0 20 17 0 0 0 0 0 0 0 0 0 0 0 0 0 0 0 0 0 0 0 0 0 0 0 25 31 35 14 13 10 11 18 23 29 37 125 241 488 479 469 383 314 228 53 87
0 0 0 1 8 0 0 0 0 0 0 0 0 0 0 0 0 0 0 0 0 0 0 0 0 0 3 21 24 0 33 15 49 4 11 19 17 0 110 440 495 555 476 447 319 219 177 37 0
1 0 1 1 0 0 0 0 0 0 0 0 0 0 0 0 0 0 0 0 0 0 0 0 17 44 177 144 25 21 182 19 0 37 59 45 93 170 342 380 468 550 556 439 460 355 351 82 19
8 5 5 0 0 0 0 0 0 0 0 0 0 0 0 0 0 3 0 0 0 0 0 0 75 116 362 500 241 326 244 26 35 83 112 105 123 164 274 488 398 378 399 354 405 459 290 63 32
1 8 0 0 0 0 0 0 0 0 0 0 0 0 0 0 0 0 2 0 0 0 0 3 26 152 358 422 563 553 460 275 202 166 27 110 175 181 421 398 489 422 389 415 485 527 427 392 435
0 0 0 0 0 0 0 0 0 0 0 0 0 0 0 0 0 0 4 51 21 0 61 65 188 345 522 709 770 750 562 512 340 229 65 88 272 260 503 418 443 302 341 337 461 488 419 499 768
0 0 0 0 0 0 4 0 0 0 0 0 0 0 0 0 0 1 8 162 251 4 172 89 20 2 608 766 866 755 605 707 661 650 113 42 151 314 462 404 395 409 408 405 434 491 651 471 600
0 0 0 0 0 0 11 0 0 0 21 72 17 8 0 0 11 114 2 108 229 134 161 271 155 287 550 882 325 446 951 1049 1205 582 71 47 66 444 618 422 549 406 379 419 532 403 351 758 632
0 0 0 0 0 15 6 3 0 9 3 91 135 53 35 3 12 53 52 111 229 221 526 458 448 504 792 774 636 110 952 1242 953 470 43 37 43 335 622 387 389 622 404 352 465 553 511 608 739
0 0 7 39 35 8 7 100 45 11 0 78 137 188 188 87 52 78 79 173 168 330 621 897 734 779 710 624 841 937 1101 1310 846 777 255 178 142 199 488 418 411 584 447 464 354 586 503 390 371
0 0 0 4 12 17 6 19 13 6 49 27 4 28 157 186 40 80 161 284 251 336 653 878 936 676 804 1127 1373 973 1054 950 804 792 406 218 168 324 458 373 396 474 458 613 353 736 461 305 340
0 0 0 11 7 18 10 17 33 7 21 18 56 0 43 222 88 121 169 307 207 365 613 843 826 440 654 1278 1375 1063 874 660 1138 809 391 208 161 295 412 401 509 484 764 676 376 387 318 590 432
0 0 7 13 4 5 1 40 80 1 30 10 0 21 61 241 202 163 213 336 294 128 384 751 738 630 908 1069 1255 1297 998 746 949 913 671 155 208 237 316 357 509 609 685 400 353 439 294 259 399
0 6 19 3 5 1 0 0 0 16 32 38 0 0 111 270 225 158 238 295 103 116 398 687 883 734 814 803 1222 1218 1228 934 928 632 469 452 86 307 383 395 622 431 387 550 423 466 422 589 574
0 5 3 1 2 7 0 0 0 8 7 0 0 0 160 229 245 219 292 277 51 16 176 712 948 611 884 936 634 1263 880 894 840 318 517 579 493 252 411 381 648 466 396 832 741 591 446 717 738
0 12 6 14 0 10 0 0 13 10 0 0 0 41 306 318 228 237 231 120 25 0 144 343 712 500 473 662 619 1006 977 629 790 589 220 386 343 357 347 481 681 916 557 919 1016 914 544 735 805
2 14 0 49 1 1 45 37 0 0 0 0 0 37 380 284 254 222 190 87 2 0 33 124 491 383 340 374 523 911 882 705 669 249 177 322 421 385 365 573 730 870 705 586 867 609 798 538 469
0 0 0 0 2 3 1 12 19 3 0 0 0 228 517 341 268 238 188 70 32 31 87 259 465 451 287 244 674 502 1021 741 990 926 532 93 402 437 436 502 686 751 750 519 566 624 688 739 458
19 0 0 0 0 70 0 15 33 0 0 22 171 376 667 358 190 183 109 114 54 50 145 346 422 265 155 238 723 484 759 935 961 1194 932 202 361 525 299 477 448 615 660 633 789 828 661 612 174
0 0 0 3 0 19 41 19 74 61 200 530 329 591 573 259 65 130 56 128 2 0 0 259 331 104 184 126 277 379 759 950 705 623 531 76 123 308 338 234 510 641 634 368 860 620 419 365 253
3 0 7 12 78 0 8 92 102 110 39 225 382 457 220 113 69 32 27 103 0 0 1 117 395 7 16 49 163 187 1019 1082 891 754 758 192 295 410 417 537 479 533 773 929 686 494 318 188 105
CIN
-0 -0 -0 -0 -0 -6 -2 -0 -0 -0 -0 -0 -0 -0 -0 -0 -0 -0 -0 -0 -0 -61 -86 -150 -88 -62 -49 -28 -14 -5 -0 -0 -0 -13 -95 -0 -0 -0 -0 -0 -0 -0 -0 -0 -0 -0 -18 -0 -0
-0 -0 -0 -57 -35 -6 -2 -16 -0 -0 -0 -0 -0 -0 -0 -0 -0 -0 -0 -0 -0 -13 -100 -81 -75 -64 -36 -14 -0 -0 -0 -0 -0 -4 -15 -26 -0 -0 -0 -3 -1 -0 -0 -0 -0 -0 -0 -44 -14
-0 -175 -132 -47 -1 -0 -5 -0 -0 -0 -0 -0 -0 -0 -0 -0 -0 -0 -0 -0 -0 -0 -109 -63 -77 -58 -23 -3 -0 -0 -0 -0 -0 -14 -2 -0 -0 -0 -0 -0 -0 -0 -0 -0 -0 -0 -0 -1 -0
-245 -175 -147 -56 -2 -2 -4 -2 -0 -0 -0 -0 -0 -0 -0 -0 -0 -0 -0 -0 -0 -0 -134 -92 -43 -25 -9 -0 -0 -0 -0 -0 -0 -23 -0 -0 -0 -3 -1 -0 -0 -0 -0 -0 -0 -0 -3 -0 -0
-237 -155 -72 -3 -1 -29 -1 -9 -0 -0 -0 -0 -0 -0 -0 -0 -0 -0 -0 -0 -0 -0 -0 -92 -63 -71 -49 -27 -1 -0 -0 -0 -0 -8 -0 -13 -4 -3 -9 -1 -0 -0 -0 -0 -0 -0 -0 -0 -0
-149 -128 -65 -4 -2 -7 -12 -4 -0 -0 -0 -0 -0 -0 -0 -0 -0 -0 -0 -0 -0 -0 -0 -95 -74 -70 -42 -21 -12 -7 -8 -78 -0 -0 -0 -0 -68 -70 -71 -41 -18 -0 -0 -0 -0 -0 -1 -0 -0
-164 -71 -23 -2 -13 -21 -9 -1 -0 -0 -0 -0 -0 -0 -0 -0 -0 -0 -0 -0 -0 -0 -0 -0 -51 -80 -55 -58 -223 -0 -0 -0 -0 -0 -0 -0 -0 -0 -49 -49 -3 -0 -0 -0 -0 -0 -0 -0 -0
-140 -85 -58 -33 -0 -1 -6 -4 -1 -0 -0 -0 -0 -0 -0 -0 -0 -0 -0 -0 -0 -0 -0 -0 -0 -0 -0 -328 -0 -0 -0 -0 -0 -0 -0 -0 -0 -0 -0 -4 -0 -0 -0 -0 -0 -0 -0 -0 -0
-4 -0 -0 -33 -1 -6 -16 -3 -4 -0 -0 -0 -0 -0 -0 -0 -0 -0 -0 -0 -0 -0 -0 -0 -0 -0 -0 -0 -11 -47 -0 -11 -0 -0 -0 -1 -5 -3 -2 -3 -0 -0 -0 -0 -0 -0 -0 -1 -0
-0 -0 -0 -19 -0 -0 -0 -0 -0 -0 -0 -0 -0 -0 -0 -0 -0 -0 -0 -0 -0 -0 -0 -0 -0 -0 -0 -0 -110 -118 -59 -2 -1 -2 -2 -2 -2 -7 -17 -30 -2 -1 -0 -0 -0 -0 -1 -14 -56
-0 -0 -0 -23 -13 -0 -0 -0 -0 -0 -0 -0 -0 -0 -0 -0 -0 -0 -0 -0 -0 -0 -0 -0 -0 -0 -222 -150 -153 -0 -11 -4 -128 -3 -4 -9 -4 -0 -26 -10 -6 -8 -1 -2 -0 -0 -2 -15 -0
-2 -1 -2 -1 -0 -0 -0 -0 -0 -0 -0 -0 -0 -0 -0 -0 -0 -0 -0 -0 -0 -0 -0 -0 -49 -170 -71 -48 -132 -10 -81 -150 -0 -67 -19 -13 -1 -5 -4 -9 -7 -8 -10 -10 -12 -17 -16 -26 -51
-20 -12 -5 -1 -0 -0 -0 -0 -0 -0 -0 -0 -0 -0 -0 -0 -0 -182 -46 -0 -0 -0 -0 -0 -170 -126 -15 -0 -25 -19 -35 -140 -17 -72 -57 -7 -8 -7 -10 -9 -11 -14 -19 -19 -20 -19 -25 -30 -30
-0 -3 -0 -0 -0 -0 -0 -0 -0 -0 -0 -0 -0 -0 -0 -0 -0 -0 -85 -0 -0 -0 -0 -278 -226 -119 -19 -2 -2 -1 -3 -5 -17 -78 -21 -25 -12 -12 -2 -5 -6 -17 -21 -26 -29 -17 -32 -33 -42
-0 -0 -0 -0 -0 -0 -0 -0 -0 -0 -0 -0 -0 -0 -0 -0 -0 -0 -284 -228 -218 -0 -214 -210 -143 -89 -7 -4 -5 -10 -9 -5 -9 -14 -35 -43 -6 -7 -1 -8 -9 -24 -24 -18 -21 -28 -26 -28 -30
-0 -0 -0 -0 -0 -0 -1 -0 -0 -0 -0 -1 -0 -0 -0 -0 -18 -27 -215 -216 -214 -180 -154 -187 -31 -36 -1 -0 -2 -11 -14 -5 -3 -3 -20 -50 -18 -4 -3 -11 -5 -8 -10 -19 -22 -25 -17 -25 -34
-0 -0 -0 -0 -0 -0 -0 -0 -0 -0 -4 -2 -5 -25 -0 -0 -52 -134 -108 -249 -235 -230 -183 -139 -139 -66 -1 -1 -52 -41 -5 -2 -0 -1 -25 -39 -10 -1 -3 -12 -4 -8 -15 -20 -19 -36 -50 -21 -37
-0 -0 -0 -0 -0 -2 -2 -0 -0 -3 -11 -1 -9 -2 -12 -35 -135 -197 -227 -244 -241 -203 -119 -110 -63 -24 -1 -18 -64 -123 -4 -0 -1 -0 -17 -19 -10 -1 -2 -15 -20 -5 -14 -29 -26 -19 -37 -38 -24
-0 -0 -1 -2 -3 -39 -18 -0 -8 -1 -0 -20 -5 -7 -11 -34 -126 -206 -270 -232 -251 -180 -95 -18 -7 -0 -5 -18 -15 -9 -1 -2 -8 -2 -2 -1 -5 -2 -2 -13 -18 -8 -24 -29 -39 -21 -24 -8 -29
-0 -0 -0 -1 -2 -2 -1 -34 -9 -10 -37 -45 -48 -23 -10 -43 -170 -204 -264 -227 -225 -179 -78 -8 -1 -0 -6 -7 -6 -9 -5 -4 -1 -1 -2 -0 -6 -3 -1 -15 -27 -25 -33 -18 -36 -17 -20 -37 -28
-0 -0 -0 -0 -2 -1 -0 -46 -20 -35 -6 -6 -19 -9 -42 -55 -113 -187 -259 -233 -229 -159 -78 -8 -0 -16 -16 -5 -22 -11 -19 -26 -0 -2 -5 -6 -1 -1 -1 -12 -12 -25 -16 -20 -36 -31 -32 -8 -15
-0 -0 -0 -1 -0 -0 -0 -45 -0 -21 -14 -10 -0 -41 -61 -62 -107 -175 -242 -215 -196 -216 -119 -10 -1 -4 -3 -10 -8 -4 -5 -6 -2 -4 -3 -12 -0 -1 -4 -15 -7 -24 -33 -45 -46 -41 -43 -37 -21
-0 -0 -1 -1 -0 -0 -0 -0 -0 -14 -4 -0 -0 -0 -41 -65 -109 -174 -218 -223 -237 -193 -98 -15 -1 -1 -1 -0 -1 -4 -2 -6 -7 -9 -3 -4 -20 -1 -3 -6 -6 -15 -23 -32 -52 -39 -27 -14 -10
-0 -0 -1 -0 -1 -22 -0 -0 -0 -13 -6 -0 -0 -0 -23 -50 -105 -171 -208 -202 -242 -123 -144 -13 -1 -1 -0 -0 -0 -0 -4 -5 -3 -11 -4 -2 -1 -7 -1 -2 -3 -5 -16 -10 -31 -40 -42 -29 -20
-0 -2 -0 -13 -0 -40 -0 -0 -53 -1 -0 -0 -0 -1 -23 -60 -117 -195 -207 -233 -257 -0 -145 -64 -0 -2 -1 -0 -0 -0 -8 -10 -4 -7 -16 -2 -4 -2 -3 -3 -0 -1 -13 -3 -9 -18 -51 -31 -12
-2 -32 -0 -17 -8 -8 -6 -4 -0 -0 -0 -0 -0 -0 -25 -72 -146 -189 -206 -225 -81 -0 -204 -129 -5 -6 -3 -1 -0 -0 -20 -28 -7 -15 -12 -3 -1 -0 -2 -1 -0 -1 -10 -13 -20 -52 -25 -15 -14
-0 -0 -0 -0 -0 -0 -0 -5 -3 -6 -0 -0 -0 -11 -60 -92 -149 -171 -179 -221 -221 -211 -154 -59 -2 -3 -1 -4 -0 -0 -17 -20 -6 -1 -11 -36 -2 -1 -1 -1 -1 -1 -2 -33 -35 -36 -6 -2 -6
-0 -0 -0 -0 -0 -8 -0 -12 -3 -0 -0 -6 -1 -16 -52 -104 -162 -150 -175 -188 -179 -184 -132 -35 -2 -12 -7 -1 -1 -0 -27 -9 -11 -8 -3 -35 -8 -1 -8 -1 -4 -1 -6 -15 -3 -4 -4 -5 -38
-0 -0 -0 -13 -0 -10 -21 -24 -1 -23 -5 -10 -13 -13 -54 -117 -146 -139 -179 -172 -59 -0 -0 -65 -15 -60 -12 -9 -1 -0 -12 -1 -13 -23 -15 -76 -39 -16 -12 -17 -3 -2 -2 -20 -6 -4 -16 -11 -5
-3 -0 -4 -34 -28 -0 -3 -2 -10 -6 -30 -3 -11 -19 -72 -109 -127 -147 -184 -175 -0 -0 -11 -135 -19 -77 -103 -41 -2 -0 -2 -1 -14 -24 -16 -64 -27 -8 -3 -2 -3 -5 -0 -4 -12 -6 -14 -22 -19
Wind_Speed
nan nan nan nan nan nan nan nan nan nan nan nan nan nan nan nan nan nan nan nan nan 52 48 49 52 48 43 41 40 41 38 38 39 39 39 nan nan nan nan nan nan nan nan nan nan nan nan nan nan
nan nan nan nan 17 16 nan nan nan nan nan nan nan nan nan nan nan nan nan nan nan 48 48 46 49 46 42 40 39 39 38 37 37 39 42 nan nan nan nan nan nan nan nan nan nan nan nan nan nan
nan nan nan nan 21 nan nan nan nan nan nan nan nan nan nan nan nan nan nan nan nan nan nan 49 52 48 42 42 38 37 38 39 40 41 nan nan 39 38 36 35 35 nan nan nan nan nan nan 27 31
23 nan nan nan nan nan nan nan nan nan nan nan nan nan nan nan nan nan nan nan nan nan nan 50 45 42 42 40 35 34 36 38 40 40 nan nan 36 36 37 35 33 35 32 nan nan nan 32 30 32
nan nan nan nan nan nan nan nan nan nan nan nan nan nan nan nan nan nan nan nan nan nan nan 50 48 43 42 37 32 32 34 38 39 38 36 34 35 35 35 35 33 32 32 30 nan nan 34 34 33
nan nan nan nan nan nan nan nan nan nan nan nan nan nan nan nan nan nan nan nan nan nan nan nan 46 45 43 44 42 42 43 nan nan nan nan nan 30 26 29 30 30 28 28 25 30 nan 33 32 38
nan nan nan nan nan nan nan nan nan nan nan nan nan nan nan nan nan nan nan nan nan nan nan nan nan 40 43 46 nan nan nan nan nan nan nan nan nan nan nan 24 26 25 26 24 25 33 31 32 36
nan nan nan nan nan nan nan nan nan nan nan nan nan nan nan nan nan nan nan nan nan nan nan nan nan nan nan nan nan nan nan nan nan nan nan nan nan nan nan 22 22 21 23 25 21 28 34 30 33
nan nan nan nan nan nan nan nan nan nan nan nan nan nan nan nan nan nan nan nan nan nan nan nan nan nan nan nan nan nan nan nan nan nan nan nan nan nan nan 25 20 20 19 23 23 22 31 34 34
nan nan nan nan nan nan nan nan nan nan nan nan nan nan nan nan nan nan nan nan nan nan nan nan nan nan nan nan nan nan nan nan nan nan nan nan nan nan nan 23 23 20 20 24 24 22 25 nan nan
nan nan nan nan nan nan nan nan nan nan nan nan nan nan nan nan nan nan nan nan nan nan nan nan nan nan nan nan nan nan nan nan nan nan nan nan nan nan 26 22 24 28 27 29 28 28 28 nan nan
nan nan nan nan nan nan nan nan nan nan nan nan nan nan nan nan nan nan nan nan nan nan nan nan nan nan 35 36 nan nan 36 nan nan nan nan nan nan 29 21 21 23 27 23 24 28 32 29 nan nan
nan nan nan nan nan nan nan nan nan nan nan nan nan nan nan nan nan nan nan nan nan nan nan nan nan 35 36 38 34 32 32 nan nan nan 35 33 31 22 17 19 16 18 17 16 25 25 31 nan nan
nan nan nan nan nan nan nan nan nan nan nan nan nan nan nan nan nan nan nan nan nan nan nan nan nan 36 37 36 33 32 30 28 27 27 nan 39 32 20 12 15 14 14 18 17 22 25 29 32 31
nan nan nan nan nan nan nan nan nan nan nan nan nan nan nan nan nan nan nan nan nan nan nan nan 36 36 39 34 32 31 24 25 29 27 nan nan 26 14 10 13 13 9 17 15 21 27 28 31 36
nan nan nan nan nan nan nan nan nan nan nan nan nan nan nan nan nan nan nan 38 35 nan 33 nan nan nan 36 29 30 25 22 23 28 28 29 nan 21 17 12 12 11 7 12 15 20 29 30 30 33
nan nan nan nan nan nan nan nan nan nan nan nan nan nan nan nan nan 39 nan 39 36 35 31 33 30 31 30 25 30 19 24 25 30 27 nan nan nan 14 14 13 7 6 7 12 22 29 28 31 34
nan nan nan nan nan nan nan nan nan nan nan nan 17 nan nan nan nan nan nan 38 38 34 33 30 29 30 27 25 26 26 24 22 27 25 nan nan nan 14 13 12 7 3 4 8 24 26 27 30 30
nan nan nan nan nan nan nan 22 nan nan nan nan 10 26 27 nan nan nan nan 36 37 34 32 29 29 28 25 24 25 27 22 17 23 25 25 25 16 10 11 10 6 1 5 9 16 25 28 32 32
nan nan nan nan nan nan nan nan nan nan nan nan nan nan 19 41 nan nan 37 37 36 30 29 28 28 27 23 22 22 21 18 18 17 23 22 18 15 12 10 10 6 3 6 13 17 24 28 36 31
nan nan nan nan nan nan nan nan nan nan nan nan nan nan nan 36 nan 37 35 34 31 28 27 26 29 26 23 20 20 17 17 14 18 18 21 13 17 10 6 8 4 2 7 13 20 26 31 39 36
nan nan nan nan nan nan nan nan nan nan nan nan nan nan nan 34 31 33 31 32 29 28 28 26 27 23 24 17 17 17 13 12 16 17 18 19 16 13 6 5 3 4 10 12 19 23 31 36 32
nan nan nan nan nan nan nan nan nan nan nan nan nan nan 33 33 33 33 32 34 29 26 27 25 25 23 20 19 15 12 11 16 14 13 14 17 nan 13 8 4 5 8 14 13 16 18 12 35 17
nan nan nan nan nan nan nan nan nan nan nan nan nan nan 35 34 34 31 32 30 nan nan 25 25 22 20 17 14 14 12 12 14 12 9 14 17 15 13 8 4 7 13 16 20 18 17 16 21 25
nan nan nan nan nan nan nan nan nan nan nan nan nan nan 34 30 29 30 32 28 nan nan 23 23 20 17 16 13 12 11 14 10 9 10 13 17 15 7 7 4 8 16 13 16 18 20 20 22 25
nan nan nan nan nan nan nan nan nan nan nan nan nan nan 29 28 27 30 31 nan nan nan nan 20 19 17 15 12 11 11 14 15 12 14 17 10 8 7 9 8 7 10 13 14 15 19 24 26 28
nan nan nan nan nan nan nan nan nan nan nan nan nan 24 26 26 28 30 29 nan nan nan nan 19 19 16 13 10 11 11 17 13 15 18 23 nan 9 7 6 9 8 13 11 13 14 17 21 25 27
nan nan nan nan nan nan nan nan nan nan nan nan 31 27 28 25 27 28 22 20 nan nan 19 20 18 13 12 9 13 12 14 15 16 22 21 13 7 10 7 6 9 9 12 12 14 13 18 23 27
nan nan nan nan nan nan nan nan nan nan 32 37 37 29 25 27 nan 24 nan 21 nan nan nan 20 16 14 13 7 11 12 11 12 11 15 20 nan 9 12 6 8 8 11 10 8 11 13 14 18 22
nan nan nan nan nan nan nan nan 36 31 nan 35 38 28 27 27 nan nan nan 19 nan nan nan 21 17 nan nan nan 9 10 9 9 10 15 19 13 7 11 9 7 9 13 12 11 9 9 11 12 19
Wind_Direction
nan nan nan nan nan nan nan nan nan nan nan nan nan nan nan nan nan nan nan nan nan 301 310 317 316 318 320 321 322 320 323 324 323 321 320 nan nan nan nan nan nan nan nan nan nan nan nan nan nan
nan nan nan nan 4 80 nan nan nan nan nan nan nan nan nan nan nan nan nan nan nan 301 310 315 317 318 319 320 322 322 322 323 321 320 318 nan nan nan nan nan nan nan nan nan nan nan nan nan nan
nan nan nan nan 13 nan nan nan nan nan nan nan nan nan nan nan nan nan nan nan nan nan nan 311 321 322 322 322 323 320 323 323 323 319 nan nan 309 306 299 290 284 nan nan nan nan nan nan 240 230
331 nan nan nan nan nan nan nan nan nan nan nan nan nan nan nan nan nan nan nan nan nan nan 312 313 315 318 321 319 323 324 322 320 317 nan nan 309 304 299 297 288 279 275 nan nan nan 247 239 224
nan nan nan nan nan nan nan nan nan nan nan nan nan nan nan nan nan nan nan nan nan nan nan 309 310 311 312 314 319 317 312 311 309 308 306 306 303 299 295 291 289 284 277 270 nan nan 245 233 222
nan nan nan nan nan nan nan nan nan nan nan nan nan nan nan nan nan nan nan nan nan nan nan nan 303 303 311 315 312 306 306 nan nan nan nan nan 303 306 307 294 283 279 282 275 262 nan 241 228 217
nan nan nan nan nan nan nan nan nan nan nan nan nan nan nan nan nan nan nan nan nan nan nan nan nan 314 323 321 nan nan nan nan nan nan nan nan nan nan nan 305 283 275 278 280 263 249 233 220 215
nan nan nan nan nan nan nan nan nan nan nan nan nan nan nan nan nan nan nan nan nan nan nan nan nan nan nan nan nan nan nan nan nan nan nan nan nan nan nan 307 285 276 277 273 274 247 232 222 213
nan nan nan nan nan nan nan nan nan nan nan nan nan nan nan nan nan nan nan nan nan nan nan nan nan nan nan nan nan nan nan nan nan nan nan nan nan nan nan 308 301 280 280 271 264 253 232 224 214
nan nan nan nan nan nan nan nan nan nan nan nan nan nan nan nan nan nan nan nan nan nan nan nan nan nan nan nan nan nan nan nan nan nan nan nan nan nan nan 292 270 273 277 266 252 249 228 nan nan
nan nan nan nan nan nan nan nan nan nan nan nan nan nan nan nan nan nan nan nan nan nan nan nan nan nan nan nan nan nan nan nan nan nan nan nan nan nan 305 284 280 280 280 257 244 234 225 nan nan
nan nan nan nan nan nan nan nan nan nan nan nan nan nan nan nan nan nan nan nan nan nan nan nan nan nan 322 321 nan nan 314 nan nan nan nan nan nan 307 295 281 285 279 266 252 233 225 222 nan nan
nan nan nan nan nan nan nan nan nan nan nan nan nan nan nan nan nan nan nan nan nan nan nan nan nan 322 322 329 326 318 322 nan nan nan 331 329 322 301 296 295 284 266 258 248 226 216 210 nan nan
nan nan nan nan nan nan nan nan nan nan nan nan nan nan nan nan nan nan nan nan nan nan nan nan nan 322 329 330 325 327 331 326 332 339 nan 327 328 308 296 310 288 264 227 244 220 205 204 199 205
nan nan nan nan nan nan nan nan nan nan nan nan nan nan nan nan nan nan nan nan nan nan nan nan 326 332 333 332 327 329 334 350 347 330 nan nan 334 329 325 319 300 264 221 247 211 191 199 201 201
nan nan nan nan nan nan nan nan nan nan nan nan nan nan nan nan nan nan nan 323 325 nan 327 nan nan nan 334 323 329 327 332 341 346 340 340 nan 345 341 338 330 307 270 220 225 212 186 194 197 195
nan nan nan nan nan nan nan nan nan nan nan nan nan nan nan nan nan 311 nan 318 322 331 327 326 325 339 326 334 337 325 335 330 338 334 nan nan nan 347 340 342 330 277 228 224 194 181 187 194 190
nan nan nan nan nan nan nan nan nan nan nan nan 317 nan nan nan nan nan nan 318 327 329 325 327 332 335 325 341 333 332 326 326 337 342 nan nan nan 354 353 358 3 251 222 179 176 172 187 188 189
nan nan nan nan nan nan nan 344 nan nan nan nan 265 271 301 nan nan nan nan 322 327 328 325 331 334 335 331 340 330 328 327 321 339 347 353 1 359 15 360 11 15 338 190 165 173 183 179 184 185
nan nan nan nan nan nan nan nan nan nan nan nan nan nan 307 308 nan nan 322 325 326 326 330 330 338 331 333 335 331 338 343 354 334 337 342 356 2 11 359 12 6 49 152 174 179 188 182 189 183
nan nan nan nan nan nan nan nan nan nan nan nan nan nan nan 316 nan 322 325 325 328 329 326 338 331 329 332 335 343 337 339 340 346 352 343 354 4 354 357 6 44 103 141 170 176 186 184 184 186
nan nan nan nan nan nan nan nan nan nan nan nan nan nan nan 319 329 320 324 325 332 332 330 330 331 337 336 321 332 335 349 342 340 338 338 351 8 2 20 28 7 90 144 160 184 185 180 193 186
nan nan nan nan nan nan nan nan nan nan nan nan nan nan 329 327 325 324 324 326 327 328 329 333 334 333 326 333 330 359 336 342 333 344 342 351 nan 3 5 82 120 141 143 152 185 193 193 184 173
nan nan nan nan nan nan nan nan nan nan nan nan nan nan 318 326 323 321 325 328 nan nan 331 335 340 331 336 339 336 360 351 1 353 353 355 353 350 7 19 53 144 153 154 145 167 182 193 195 189
nan nan nan nan nan nan nan nan nan nan nan nan nan nan 316 317 319 323 325 326 nan nan 332 340 338 336 351 333 331 350 341 355 7 345 347 338 351 24 41 80 157 157 155 155 158 172 183 201 202
nan nan nan nan nan nan nan nan nan nan nan nan nan nan 303 317 321 323 329 nan nan nan nan 353 336 333 358 325 334 355 339 12 9 354 347 337 356 29 53 66 137 154 150 169 176 181 199 199 197
nan nan nan nan nan nan nan nan nan nan nan nan nan 320 303 312 317 320 322 nan nan nan nan 348 338 338 352 329 346 12 356 4 0 348 356 nan 358 28 53 73 111 166 173 181 199 200 206 201 196
nan nan nan nan nan nan nan nan nan nan nan nan 305 315 312 315 316 326 325 337 nan nan 346 350 342 2 360 355 3 359 351 2 355 3 8 1 25 22 15 79 71 136 173 186 189 166 180 191 190
nan nan nan nan nan nan nan nan nan nan 287 295 311 305 321 325 nan 328 nan 333 nan nan nan 357 2 2 358 348 335 7 357 10 358 10 23 nan 46 38 40 96 79 95 145 171 176 183 188 197 203
nan nan nan nan nan nan nan nan 261 264 nan 293 302 302 314 324 nan nan nan 342 nan nan nan 357 11 nan nan nan 356 27 10 25 6 22 24 20 42 74 82 69 78 107 110 122 150 169 197 200 218